11:12
Airports
History
Links
Donate
Help keep this website running!
PayPal
Bitcoin
This page is community maintained. The information is intended for PC simulator navigation or reference.
Always use approved charts for navigation.
BIHU
HUSAVIK
HUSAVIK (BIHU)
Húsavík, Iceland
(C)
Lat/Lng:65° 57' 8.38" N / 17° 25' 33.52" W
65.952327 / -17.425978
Elevation:48'ft / 15mMSL
ID / ICAO:BIHU
Runways:1
Longest:03-21
Asphalt 1,593m / 5,227ft
Controlled:Yes
Nearby Weather11:00 GMT 2017-12-11
Nearby weather at BIAR, AKUREYRI located 27.3 nautical miles from BIHU
Altimeter: 29.71
Visibility: 6.2 statute miles
Wind: 7 knots (from 180°)
Temp: -9°c / 16°f
Humidity: 85.3%

METAR: BIAR 111100Z 18007KT CAVOK M09/M11 Q1006

(Powered by phpweather)
Airport Radio Frequencies
Tower: 118.1
Nearby VORs <50NM
Nearby NDBs
Runway 03 / 21
Dimensions:1593.2 x 47.9m 5227' x 157'ft
Surface:Asphalt
Edge Lights:Medium intensity
Runway 03 [A]Runway 21 [B]
Heading:011°TH 191°TH
Lat:
Lng:
65° 56' 43.14"N
17° 25' 46.22"W
65° 57' 33.61"N
17° 25' 20.82"W
User Notes and Comments
65° 57' 8.38" N / 17° 25' 33.52" W
Distance To
Airport ID:
Nearby Airports
4 Reykjahlid 25.1 NM
BIRL SE 145°
(C) AKUREYRI 27.3 NM
BIAR ( WX ) SW 222°
4 Hrisey 27.6 NM
BIHY W 276°
4 Olafsfjordur 36.0 NM
BIOF WNW 284°
4 Kopasker 36.5 NM
BIKP NE 47°
4 Melgerdismelar 38.6 NM
BIMM SSW 212°
4 Grimsstadir 42.4 NM
BIGS ESE 121°
VFR Chart
Flight Planning at SkyVector.com